Time,TemperatureF,DewpointF,PressureIn,WindDirection,WindDirectionDegrees,WindSpeedMPH,WindSpeedGustMPH,Humidity,HourlyPrecipIn,Conditions,Clouds,dailyrainin,SolarRadiationWatts/m^2,SoftwareType,DateUTC
2013-03-17 00:02:00,47.0,27.0,-100.00,West,278,19.0,41.0,45,0.00,,,0.00,0.000000,,2013-03-17 07:02:00,
2013-03-17 00:12:00,47.0,27.0,-100.00,West,278,19.0,41.0,45,0.00,,,0.00,0.000000,,2013-03-17 07:12:00,
2013-03-17 00:22:00,47.0,27.0,-100.00,West,278,19.0,41.0,45,0.00,,,0.00,0.000000,,2013-03-17 07:22:00,
2013-03-17 00:52:00,45.0,22.0,-100.00,WNW,283,30.0,50.0,39,0.00,,,0.00,0.000000,,2013-03-17 07:52:00,
2013-03-17 01:02:00,45.0,22.0,-100.00,WNW,283,30.0,50.0,39,0.00,,,0.00,0.000000,,2013-03-17 08:02:00,
2013-03-17 01:12:00,45.0,22.0,-100.00,WNW,283,30.0,50.0,39,0.00,,,0.00,0.000000,,2013-03-17 08:12:00,
2013-03-17 01:22:00,45.0,22.0,-100.00,WNW,283,30.0,50.0,39,0.00,,,0.00,0.000000,,2013-03-17 08:22:00,
2013-03-17 01:52:00,44.0,20.0,-100.00,West,272,23.0,53.0,38,0.00,,,0.00,0.000000,,2013-03-17 08:52:00,
2013-03-17 02:02:00,44.0,20.0,-100.00,West,272,23.0,53.0,38,0.00,,,0.00,0.000000,,2013-03-17 09:02:00,
2013-03-17 02:12:00,44.0,20.0,-100.00,West,272,23.0,53.0,38,0.00,,,0.00,0.000000,,2013-03-17 09:12:00,
2013-03-17 02:22:00,44.0,20.0,-100.00,West,272,23.0,53.0,38,0.00,,,0.00,0.000000,,2013-03-17 09:22:00,
2013-03-17 02:53:00,44.0,19.0,-100.00,WNW,302,14.0,50.0,37,0.00,,,0.00,0.000000,,2013-03-17 09:53:00,
2013-03-17 03:03:00,44.0,19.0,-100.00,WNW,302,14.0,50.0,37,0.00,,,0.00,0.000000,,2013-03-17 10:03:00,
2013-03-17 03:12:00,44.0,19.0,-100.00,WNW,302,14.0,50.0,37,0.00,,,0.00,0.000000,,2013-03-17 10:12:00,
2013-03-17 03:23:00,44.0,19.0,-100.00,WNW,302,14.0,50.0,37,0.00,,,0.00,0.000000,,2013-03-17 10:23:00,
2013-03-17 03:52:00,44.0,18.0,-100.00,WNW,288,17.0,38.0,35,0.00,,,0.00,0.000000,,2013-03-17 10:52:00,
2013-03-17 04:02:00,44.0,18.0,-100.00,WNW,288,17.0,38.0,35,0.00,,,0.00,0.000000,,2013-03-17 11:02:00,
2013-03-17 04:12:00,44.0,18.0,-100.00,WNW,288,17.0,38.0,35,0.00,,,0.00,0.000000,,2013-03-17 11:12:00,
2013-03-17 04:22:00,44.0,18.0,-100.00,WNW,288,17.0,38.0,35,0.00,,,0.00,0.000000,,2013-03-17 11:22:00,
2013-03-17 04:52:00,42.0,17.0,-100.00,NW,310,20.0,38.0,36,0.00,,,0.00,0.000000,,2013-03-17 11:52:00,
2013-03-17 05:02:00,42.0,17.0,-100.00,NW,310,20.0,38.0,36,0.00,,,0.00,0.000000,,2013-03-17 12:02:00,
2013-03-17 05:12:00,42.0,17.0,-100.00,NW,310,20.0,38.0,36,0.00,,,0.00,0.000000,,2013-03-17 12:12:00,
2013-03-17 05:21:00,42.0,17.0,-100.00,NW,310,20.0,38.0,36,0.00,,,0.00,0.000000,,2013-03-17 12:21:00,
2013-03-17 05:52:00,43.0,20.0,-100.00,SW,225,14.0,34.0,39,0.00,,,0.00,0.000000,,2013-03-17 12:52:00,
2013-03-17 06:02:00,43.0,20.0,-100.00,SW,225,14.0,34.0,39,0.00,,,0.00,0.000000,,2013-03-17 13:02:00,
2013-03-17 06:12:00,43.0,20.0,-100.00,SW,225,14.0,34.0,39,0.00,,,0.00,0.000000,,2013-03-17 13:12:00,
2013-03-17 06:22:00,43.0,20.0,-100.00,SW,225,14.0,34.0,39,0.00,,,0.00,0.000000,,2013-03-17 13:22:00,
2013-03-17 06:52:00,41.0,22.0,-100.00,WNW,287,10.0,29.0,46,0.00,,,0.00,0.000000,,2013-03-17 13:52:00,
2013-03-17 07:02:00,41.0,22.0,-100.00,WNW,287,10.0,29.0,46,0.00,,,0.00,0.000000,,2013-03-17 14:02:00,
2013-03-17 07:12:00,41.0,22.0,-100.00,WNW,287,10.0,29.0,46,0.00,,,0.00,0.000000,,2013-03-17 14:12:00,
2013-03-17 07:22:00,41.0,22.0,-100.00,WNW,287,10.0,29.0,46,0.00,,,0.00,0.000000,,2013-03-17 14:22:00,
2013-03-17 07:53:00,41.0,24.0,-100.00,WNW,303,14.0,24.0,51,0.00,,,0.00,12.000000,,2013-03-17 14:53:00,
2013-03-17 08:02:00,41.0,24.0,-100.00,WNW,303,14.0,24.0,51,0.00,,,0.00,12.000000,,2013-03-17 15:02:00,
2013-03-17 08:12:00,41.0,24.0,-100.00,WNW,303,14.0,24.0,51,0.00,,,0.00,12.000000,,2013-03-17 15:12:00,
2013-03-17 08:22:00,41.0,24.0,-100.00,WNW,303,14.0,24.0,51,0.00,,,0.00,12.000000,,2013-03-17 15:22:00,
2013-03-17 08:53:00,44.0,26.0,-100.00,NW,316,15.0,20.0,48,0.00,,,0.00,215.000000,,2013-03-17 15:53:00,
2013-03-17 09:03:00,44.0,26.0,-100.00,NW,316,15.0,20.0,48,0.00,,,0.00,215.000000,,2013-03-17 16:03:00,
2013-03-17 09:12:00,44.0,26.0,-100.00,NW,316,15.0,20.0,48,0.00,,,0.00,215.000000,,2013-03-17 16:12:00,
2013-03-17 09:22:00,44.0,26.0,-100.00,NW,316,15.0,20.0,48,0.00,,,0.00,215.000000,,2013-03-17 16:22:00,
2013-03-17 09:52:00,46.0,24.0,-100.00,NW,315,19.0,26.0,42,0.00,,,0.00,233.000000,,2013-03-17 16:52:00,
2013-03-17 10:02:00,46.0,24.0,-100.00,NW,315,19.0,26.0,42,0.00,,,0.00,233.000000,,2013-03-17 17:02:00,
2013-03-17 10:12:00,46.0,24.0,-100.00,NW,315,19.0,26.0,42,0.00,,,0.00,233.000000,,2013-03-17 17:12:00,
2013-03-17 10:22:00,46.0,24.0,-100.00,NW,315,19.0,26.0,42,0.00,,,0.00,233.000000,,2013-03-17 17:22:00,
2013-03-17 10:53:00,49.0,27.0,-100.00,NW,310,17.0,29.0,43,0.00,,,0.00,502.000000,,2013-03-17 17:53:00,
2013-03-17 11:12:00,49.0,27.0,-100.00,NW,310,17.0,29.0,43,0.00,,,0.00,502.000000,,2013-03-17 18:12:00,
2013-03-17 11:22:00,49.0,27.0,-100.00,NW,310,17.0,29.0,43,0.00,,,0.00,502.000000,,2013-03-17 18:22:00,
2013-03-17 11:52:00,50.0,25.0,-100.00,NW,306,19.0,25.0,37,0.00,,,0.00,914.000000,,2013-03-17 18:52:00,
2013-03-17 12:02:00,50.0,25.0,-100.00,NW,306,19.0,25.0,37,0.00,,,0.00,914.000000,,2013-03-17 19:02:00,
2013-03-17 12:12:00,50.0,25.0,-100.00,NW,306,19.0,25.0,37,0.00,,,0.00,914.000000,,2013-03-17 19:12:00,
2013-03-17 12:22:00,50.0,25.0,-100.00,NW,306,19.0,25.0,37,0.00,,,0.00,914.000000,,2013-03-17 19:22:00,
2013-03-17 12:53:00,54.0,22.0,-100.00,West,277,11.0,26.0,28,0.00,,,0.00,1053.000000,,2013-03-17 19:53:00,
2013-03-17 13:02:00,54.0,22.0,-100.00,West,277,11.0,26.0,28,0.00,,,0.00,1053.000000,,2013-03-17 20:02:00,
2013-03-17 13:12:00,54.0,22.0,-100.00,West,277,11.0,26.0,28,0.00,,,0.00,1053.000000,,2013-03-17 20:12:00,
2013-03-17 13:22:00,54.0,22.0,-100.00,West,277,11.0,26.0,28,0.00,,,0.00,1053.000000,,2013-03-17 20:22:00,
2013-03-17 13:52:00,55.0,17.0,-100.00,West,277,19.0,36.0,22,0.00,,,0.00,1152.000000,,2013-03-17 20:52:00,
2013-03-17 14:02:00,55.0,17.0,-100.00,West,277,19.0,36.0,22,0.00,,,0.00,1152.000000,,2013-03-17 21:02:00,
2013-03-17 14:12:00,55.0,17.0,-100.00,West,277,19.0,36.0,22,0.00,,,0.00,1152.000000,,2013-03-17 21:12:00,
2013-03-17 14:22:00,55.0,17.0,-100.00,West,277,19.0,36.0,22,0.00,,,0.00,1152.000000,,2013-03-17 21:22:00,
2013-03-17 15:22:00,58.0,13.0,-100.00,West,271,21.0,34.0,17,0.00,,,0.00,1115.000000,,2013-03-17 22:22:00,
2013-03-17 15:53:00,57.0,13.0,-100.00,West,269,19.0,39.0,17,0.00,,,0.00,992.000000,,2013-03-17 22:53:00,
2013-03-17 16:02:00,57.0,13.0,-100.00,West,269,19.0,39.0,17,0.00,,,0.00,992.000000,,2013-03-17 23:02:00,
2013-03-17 16:12:00,57.0,13.0,-100.00,West,269,19.0,39.0,17,0.00,,,0.00,992.000000,,2013-03-17 23:12:00,
2013-03-17 16:22:00,57.0,13.0,-100.00,West,269,19.0,39.0,17,0.00,,,0.00,992.000000,,2013-03-17 23:22:00,
2013-03-17 16:52:00,57.0,13.0,-100.00,West,279,26.0,39.0,17,0.00,,,0.00,796.000000,,2013-03-17 23:52:00,
2013-03-17 17:03:00,57.0,13.0,-100.00,West,279,26.0,39.0,17,0.00,,,0.00,796.000000,,2013-03-18 00:03:00,
2013-03-17 17:11:00,57.0,13.0,-100.00,West,279,26.0,39.0,17,0.00,,,0.00,796.000000,,2013-03-18 00:11:00,
2013-03-17 17:21:00,57.0,13.0,-100.00,West,279,26.0,39.0,17,0.00,,,0.00,796.000000,,2013-03-18 00:21:00,
2013-03-17 17:52:00,53.0,18.0,-100.00,West,281,29.0,43.0,25,0.00,,,0.00,547.000000,,2013-03-18 00:52:00,
2013-03-17 18:01:00,53.0,18.0,-100.00,West,281,29.0,43.0,25,0.00,,,0.00,547.000000,,2013-03-18 01:01:00,
2013-03-17 18:12:00,53.0,18.0,-100.00,West,281,29.0,43.0,25,0.00,,,0.00,547.000000,,2013-03-18 01:12:00,
2013-03-17 18:22:00,53.0,18.0,-100.00,West,281,29.0,43.0,25,0.00,,,0.00,547.000000,,2013-03-18 01:22:00,
2013-03-17 18:52:00,48.0,19.0,-100.00,West,280,29.0,48.0,31,0.00,,,0.00,181.000000,,2013-03-18 01:52:00,
2013-03-17 19:02:00,48.0,19.0,-100.00,West,280,29.0,48.0,31,0.00,,,0.00,181.000000,,2013-03-18 02:02:00,
2013-03-17 19:12:00,48.0,19.0,-100.00,West,280,29.0,48.0,31,0.00,,,0.00,181.000000,,2013-03-18 02:12:00,
2013-03-17 19:22:00,48.0,19.0,-100.00,West,280,29.0,48.0,31,0.00,,,0.00,181.000000,,2013-03-18 02:22:00,
2013-03-17 19:52:00,45.0,20.0,-100.00,West,281,30.0,46.0,37,0.00,,,0.00,13.000000,,2013-03-18 02:52:00,
2013-03-17 20:02:00,45.0,20.0,-100.00,West,281,30.0,46.0,37,0.00,,,0.00,13.000000,,2013-03-18 03:02:00,
2013-03-17 20:11:00,45.0,20.0,-100.00,West,281,30.0,46.0,37,0.00,,,0.00,13.000000,,2013-03-18 03:11:00,
2013-03-17 20:22:00,45.0,20.0,-100.00,West,281,30.0,46.0,37,0.00,,,0.00,13.000000,,2013-03-18 03:22:00,
2013-03-17 20:53:00,43.0,17.0,-100.00,West,277,31.0,47.0,34,0.00,,,0.00,0.000000,,2013-03-18 03:53:00,
2013-03-17 21:02:00,43.0,17.0,-100.00,West,277,31.0,47.0,34,0.00,,,0.00,0.000000,,2013-03-18 04:02:00,
2013-03-17 21:12:00,43.0,17.0,-100.00,West,277,31.0,47.0,34,0.00,,,0.00,0.000000,,2013-03-18 04:12:00,
2013-03-17 21:22:00,43.0,17.0,-100.00,West,277,31.0,47.0,34,0.00,,,0.00,0.000000,,2013-03-18 04:22:00,
2013-03-17 21:52:00,44.0,17.0,-100.00,West,276,16.0,43.0,33,0.00,,,0.00,0.000000,,2013-03-18 04:52:00,
2013-03-17 22:02:00,44.0,17.0,-100.00,West,276,16.0,43.0,33,0.00,,,0.00,0.000000,,2013-03-18 05:02:00,
2013-03-17 22:12:00,44.0,17.0,-100.00,West,276,16.0,43.0,33,0.00,,,0.00,0.000000,,2013-03-18 05:12:00,
2013-03-17 22:22:00,44.0,17.0,-100.00,West,276,16.0,43.0,33,0.00,,,0.00,0.000000,,2013-03-18 05:22:00,
2013-03-17 22:52:00,43.0,16.0,-100.00,NW,324,24.0,32.0,33,0.00,,,0.00,0.000000,,2013-03-18 05:52:00,
2013-03-17 23:02:00,43.0,16.0,-100.00,NW,324,24.0,32.0,33,0.00,,,0.00,0.000000,,2013-03-18 06:02:00,
2013-03-17 23:12:00,43.0,16.0,-100.00,NW,324,24.0,32.0,33,0.00,,,0.00,0.000000,,2013-03-18 06:12:00,
2013-03-17 23:22:00,43.0,16.0,-100.00,NW,324,24.0,32.0,33,0.00,,,0.00,0.000000,,2013-03-18 06:22:00,
2013-03-17 23:52:00,44.0,18.0,-100.00,NW,319,24.0,33.0,35,0.00,,,0.00,0.000000,,2013-03-18 06:52:00,